This is the latest recevied weather packets stored in our database for station/object KD8UTJ. If no packets are shown the sender has not sent any weather packets the latest 10 day(s).
| Time | Temp. | Humidity | Pressure | Rain* | Wind** | Luminosity | Snow |
|---|---|---|---|---|---|---|---|
| 1777507875 | 25.56° C | 75% | 1013.9 hPa | 0 mm | - | 0 W/m² | - |
| 1777507572 | 25.56° C | 76% | 1013.9 hPa | 0 mm | - | 1 W/m² | - |
| 1777507269 | 25.56° C | 75% | 1013.8 hPa | 0 mm | - | 2 W/m² | - |
| 1777506966 | 26.11° C | 75% | 1013.8 hPa | 0 mm | - | 4 W/m² | - |
| 1777505145 | 26.11° C | 72% | 1013.8 hPa | 0 mm | - | 22 W/m² | - |
| 1777502718 | 26.67° C | 70% | 1013.8 hPa | 0 mm | - | 46 W/m² | - |
| 1777497565 | 27.22° C | 64% | 1014.2 hPa | 0 mm | - | 149 W/m² | - |
| 1777497262 | 27.78° C | 63% | 1014.3 hPa | 0 mm | - | 175 W/m² | - |
| 1777496958 | 27.78° C | 63% | 1014.2 hPa | 0 mm | - | 205 W/m² | - |
| 1777496655 | 27.78° C | 64% | 1014.3 hPa | 0 mm | - | 130 W/m² | - |
| 1777496352 | 27.78° C | 64% | 1014.4 hPa | 0 mm | - | 414 W/m² | - |
| 1777496048 | 27.78° C | 64% | 1014.4 hPa | 0 mm | - | 447 W/m² | - |
| 1777495744 | 27.78° C | 65% | 1014.5 hPa | 0 mm | - | 464 W/m² | - |
| 1777495136 | 27.78° C | 66% | 1014.8 hPa | 0 mm | - | 499 W/m² | - |
| 1777494834 | 27.78° C | 64% | 1014.8 hPa | 0 mm | - | 510 W/m² | - |
| 1777494228 | 27.78° C | 62% | 1014.9 hPa | 0 mm | - | 536 W/m² | - |
| 1777493924 | 27.78° C | 63% | 1015.1 hPa | 0 mm | - | 557 W/m² | - |
| 1777493623 | 27.78° C | 61% | 1015.3 hPa | 0 mm | - | 564 W/m² | - |
| 1777492413 | 28.33° C | 58% | 1015.6 hPa | 0 mm | - | 630 W/m² | - |
| 1777491504 | 28.33° C | 61% | 1015.8 hPa | 0 mm | - | 518 W/m² | - |
| 1777491201 | 28.33° C | 60% | 1016 hPa | 0 mm | - | 459 W/m² | - |
| 1777490897 | 27.78° C | 62% | 1016.2 hPa | 0 mm | - | 408 W/m² | - |
| 1777490594 | 28.33° C | 60% | 1016.2 hPa | 0 mm | - | 789 W/m² | - |
| 1777490290 | 27.78° C | 62% | 1016.4 hPa | 0 mm | - | 592 W/m² | - |
| 1777488775 | 27.78° C | 63% | 1017 hPa | 0 mm | - | 374 W/m² | - |
* Rain latest hour (hover to see other rain measurements)
** Current wind speed in m/s (hover to see current wind gust speed)